Weather History for Lago Vista, TX

Change the Weather History Date:

Saturday, October 12, 2013

  Actual Average (KATT) Record (KATT)
Temperature  
Mean Temperature 80 °F 72 °F  
Max Temperature 89 °F 83 °F 98 °F (1991)
Min Temperature 71 °F 62 °F 41 °F (1946)
Degree Days  
Heating Degree Days 0 1  
Month to date heating degree days 1  
Since 1 July heating degree days 3  
Cooling Degree Days 15 8  
Month to date cooling degree days 111  
Year to date cooling degree days 2955  
Growing Degree Days 30 (Base 50)    
Moisture  
Dew Point 70 °F    
Average Humidity 75    
Maximum Humidity 94    
Minimum Humidity 49    
Precipitation  
Precipitation 0.00 in 0.13 in 3.63 in (1986)
Month to date precipitation 1.40  
Year to date precipitation 26.48  
Snow  
Snow 0.00 in - - ()
Month to date snowfall  
Since 1 July snowfall  
Since 1 September snowfall  
Snow Depth -    
Sea Level Pressure  
Sea Level Pressure 29.99 in    
Wind  
Wind Speed 5 mph (SSE)    
Max Wind Speed 13 mph    
Max Gust Speed 18 mph    
Visibility 9 miles    
Events Rain , Thunderstorm    
T = Trace of Precipitation, MM = Missing Value Source: NWS Daily Summary

Daily Weather History Graph

Daily Weather History Graph

Search for Another Location

Airport:

Trip Planner

Search our weather history database for the weather conditions in past years. The results will help you decide how hot, cold, wet, or windy it might be!

Date:

Astronomy

Oct. 12, 2013 Rise Set
Actual Time 7:32 AM CDT 7:03 PM CDT
Civil Twilight 7:08 AM CDT 7:27 PM CDT
Nautical Twilight 6:40 AM CDT 7:55 PM CDT
Astronomical Twilight 6:12 AM CDT 8:23 PM CDT
Moon 2:50 PM CDT (10/12) 1:02 AM CDT (10/12)
Length of Visible Light 12h 19m
Length of Day
11h 31m
First Quarter, 59% of the Moon is Illuminated
Oct 12
First Quarter
Oct 18
Full
Oct 26
Last Quarter
Nov 3
New
Nov 9
First Quarter

Hourly Weather History & Observations

Time (CDT) Temp. Heat Index Dew Point Humidity Pressure Visibility Wind Dir Wind Speed Gust Speed Precip Events Conditions
12:15 AM 77.0 °F - 71.6 °F 83% 29.94 in 10.0 mi SSE 5.8 mph - N/A   Overcast
12:35 AM 77.0 °F - 71.6 °F 83% 29.94 in 10.0 mi SSE 3.5 mph - N/A   Overcast
12:55 AM 77.0 °F - 71.6 °F 83% 29.95 in 10.0 mi SSE 3.5 mph - N/A   Overcast
1:15 AM 77.0 °F - 71.6 °F 83% 29.95 in 10.0 mi South 3.5 mph - N/A   Overcast
1:35 AM 77.0 °F - 71.6 °F 83% 29.95 in 10.0 mi South 5.8 mph - N/A   Overcast
1:55 AM 77.0 °F - 71.6 °F 83% 29.95 in 10.0 mi South 3.5 mph - N/A   Overcast
2:15 AM 77.0 °F - 71.6 °F 83% 29.95 in 10.0 mi South 4.6 mph - N/A   Overcast
2:35 AM 77.0 °F - 71.6 °F 83% 29.95 in 10.0 mi South 4.6 mph - N/A   Overcast
2:55 AM 77.0 °F - 71.6 °F 83% 29.95 in 10.0 mi SSE 6.9 mph - N/A   Overcast
3:15 AM 77.0 °F - 71.6 °F 83% 29.95 in 10.0 mi South 4.6 mph - N/A   Overcast
3:35 AM 75.2 °F - 71.6 °F 89% 29.95 in 10.0 mi Calm Calm - N/A   Overcast
3:55 AM 75.2 °F - 71.6 °F 89% 29.95 in 10.0 mi SSE 4.6 mph - N/A   Overcast
4:15 AM 75.2 °F - 71.6 °F 89% 29.95 in 10.0 mi SSE 4.6 mph - N/A   Overcast
4:35 AM 75.2 °F - 71.6 °F 89% 29.95 in 7.0 mi SSE 3.5 mph - N/A   Overcast
4:55 AM 75.2 °F - 71.6 °F 89% 29.95 in 7.0 mi SSE 3.5 mph - N/A   Overcast
5:15 AM 75.2 °F - 71.6 °F 89% 29.96 in 7.0 mi SSE 3.5 mph - N/A   Overcast
5:35 AM 75.2 °F - 71.6 °F 89% 29.96 in 5.0 mi SE 6.9 mph - N/A Rain Rain
6:15 AM 73.4 °F - 71.6 °F 94% 29.97 in 3.0 mi SSE 4.6 mph - N/A   Overcast
6:35 AM 73.4 °F - 71.6 °F 94% 29.98 in 3.0 mi SSE 4.6 mph - N/A   Overcast
6:55 AM 73.4 °F - 71.6 °F 94% 29.98 in 3.0 mi SSE 3.5 mph - N/A   Overcast
7:15 AM 73.4 °F - 71.6 °F 94% 29.99 in 3.0 mi SSE 4.6 mph - N/A   Overcast
7:35 AM 73.4 °F - 71.6 °F 94% 30.00 in 3.0 mi SSE 3.5 mph - N/A   Overcast
7:55 AM 73.4 °F - 71.6 °F 94% 30.00 in 3.0 mi SSE 3.5 mph - N/A   Overcast
8:15 AM 73.4 °F - 71.6 °F 94% 30.01 in 2.5 mi SE 4.6 mph - N/A   Overcast
8:35 AM 75.2 °F - 71.6 °F 89% 30.02 in 3.0 mi SSE 4.6 mph - N/A   Overcast
8:55 AM 75.2 °F - 71.6 °F 89% 30.03 in 5.0 mi SSE 5.8 mph - N/A   Overcast
9:15 AM 77.0 °F - 71.6 °F 83% 30.03 in 7.0 mi SSE 4.6 mph - N/A   Overcast
9:35 AM 78.8 °F - 71.6 °F 78% 30.04 in 10.0 mi SSE 4.6 mph - N/A   Overcast
9:55 AM 78.8 °F - 71.6 °F 78% 30.04 in 10.0 mi South 6.9 mph - N/A   Mostly Cloudy
10:15 AM 80.6 °F 84.6 °F 71.6 °F 74% 30.04 in 10.0 mi SSW 4.6 mph - N/A   Mostly Cloudy
10:35 AM 80.6 °F 84.6 °F 71.6 °F 74% 30.04 in 10.0 mi SSW 4.6 mph - N/A   Mostly Cloudy
10:55 AM 80.6 °F 84.6 °F 71.6 °F 74% 30.05 in 10.0 mi South 9.2 mph - N/A   Mostly Cloudy
11:15 AM 82.4 °F 87.2 °F 71.6 °F 70% 30.04 in 10.0 mi South 5.8 mph - N/A   Scattered Clouds
11:35 AM 82.4 °F 87.2 °F 71.6 °F 70% 30.04 in 10.0 mi South 3.5 mph - N/A   Scattered Clouds
11:55 AM 80.6 °F 84.6 °F 71.6 °F 74% 30.04 in 10.0 mi SSW 5.8 mph - N/A   Mostly Cloudy
12:15 PM 82.4 °F 87.2 °F 71.6 °F 70% 30.04 in 10.0 mi SSW 3.5 mph - N/A   Overcast
12:35 PM 82.4 °F 87.2 °F 71.6 °F 70% 30.03 in 10.0 mi SSE 5.8 mph - N/A   Mostly Cloudy
12:55 PM 86.0 °F 90.4 °F 69.8 °F 58% 30.02 in 10.0 mi South 6.9 mph - N/A   Scattered Clouds
1:15 PM 86.0 °F 90.4 °F 69.8 °F 58% 30.01 in 10.0 mi South 4.6 mph - N/A   Scattered Clouds
1:35 PM 86.0 °F 90.4 °F 69.8 °F 58% 30.00 in 10.0 mi SSW 3.5 mph - N/A   Mostly Cloudy
1:55 PM 86.0 °F 90.4 °F 69.8 °F 58% 30.00 in 10.0 mi South 5.8 mph - N/A   Scattered Clouds
2:15 PM 87.8 °F 92.6 °F 69.8 °F 55% 29.98 in 10.0 mi SSW 8.1 mph - N/A   Mostly Cloudy
2:35 PM 89.6 °F 93.4 °F 68.0 °F 49% 29.97 in 10.0 mi South 8.1 mph 17.3 mph N/A   Scattered Clouds
2:55 PM 87.8 °F 91.4 °F 68.0 °F 52% 29.97 in 10.0 mi SSW 9.2 mph - N/A   Mostly Cloudy
3:15 PM 87.8 °F 91.4 °F 68.0 °F 52% 29.96 in 10.0 mi SSW 8.1 mph - N/A   Scattered Clouds
3:35 PM 89.6 °F 93.4 °F 68.0 °F 49% 29.95 in 10.0 mi SSW 5.8 mph 16.1 mph N/A   Scattered Clouds
3:55 PM 87.8 °F 91.4 °F 68.0 °F 52% 29.95 in 10.0 mi SW 5.8 mph - N/A   Scattered Clouds
4:15 PM 89.6 °F 93.4 °F 68.0 °F 49% 29.95 in 10.0 mi South 8.1 mph - N/A   Scattered Clouds
4:35 PM 89.6 °F 93.4 °F 68.0 °F 49% 29.95 in 10.0 mi South 6.9 mph - N/A   Mostly Cloudy
4:55 PM 89.6 °F 93.4 °F 68.0 °F 49% 29.96 in 10.0 mi South 6.9 mph - N/A   Mostly Cloudy
5:15 PM 87.8 °F 91.4 °F 68.0 °F 52% 29.95 in 10.0 mi South 5.8 mph - N/A   Overcast
5:35 PM 87.8 °F 91.4 °F 68.0 °F 52% 29.96 in 10.0 mi South 6.9 mph - N/A   Overcast
5:55 PM 86.0 °F 89.4 °F 68.0 °F 55% 29.96 in 10.0 mi South 6.9 mph - N/A   Overcast
6:15 PM 86.0 °F 89.4 °F 68.0 °F 55% 29.96 in 10.0 mi SSE 4.6 mph - N/A   Mostly Cloudy
6:35 PM 84.2 °F 87.3 °F 68.0 °F 58% 29.96 in 10.0 mi SE 6.9 mph - N/A   Scattered Clouds
6:55 PM 82.4 °F 86.3 °F 69.8 °F 66% 29.98 in 10.0 mi SE 6.9 mph - N/A   Clear
7:15 PM 80.6 °F 83.9 °F 69.8 °F 70% 29.98 in 10.0 mi SE 5.8 mph - N/A   Clear
7:35 PM 78.8 °F - 68.0 °F 69% 29.99 in 10.0 mi SE 6.9 mph - N/A   Clear
7:55 PM 78.8 °F - 68.0 °F 69% 30.00 in 10.0 mi East 9.2 mph - N/A   Mostly Cloudy
8:15 PM 78.8 °F - 68.0 °F 69% 30.01 in 10.0 mi East 9.2 mph 16.1 mph N/A   Overcast
8:35 PM 77.0 °F - 68.0 °F 74% 30.03 in 10.0 mi East 6.9 mph 18.4 mph N/A   Mostly Cloudy
8:55 PM 77.0 °F - 68.0 °F 74% 30.04 in 10.0 mi East 12.7 mph 18.4 mph N/A   Mostly Cloudy
9:15 PM 75.2 °F - 68.0 °F 78% 30.04 in 10.0 mi East 12.7 mph 18.4 mph N/A   Overcast
9:35 PM 75.2 °F - 68.0 °F 78% 30.04 in 10.0 mi East 6.9 mph 16.1 mph N/A   Overcast
9:55 PM 75.2 °F - 68.0 °F 78% 30.05 in 10.0 mi East 5.8 mph - N/A   Overcast
10:15 PM 75.2 °F - 68.0 °F 78% 30.04 in 10.0 mi NE 8.1 mph - N/A Thunderstorm Overcast
10:35 PM 73.4 °F - 68.0 °F 83% 30.05 in 10.0 mi ENE 9.2 mph - N/A Thunderstorm Overcast
10:55 PM 73.4 °F - 68.0 °F 83% 30.06 in 10.0 mi East 10.4 mph - N/A Thunderstorm Overcast
11:15 PM 73.4 °F - 68.0 °F 83% 30.06 in 10.0 mi East 10.4 mph - N/A Thunderstorm Overcast
11:35 PM 71.6 °F - 68.0 °F 88% 30.06 in 10.0 mi East 10.4 mph - N/A Thunderstorm Overcast
11:55 PM 71.6 °F - 68.0 °F 88% 30.07 in 10.0 mi ESE 10.4 mph - N/A Thunderstorm Overcast